Tyler, TX

7:45 PM CDT on October 17, 2017 (GMT -0500)
Tyler Pounds

Weather History for KTYR - December, 2011

Change the Weather History Date:

Monday, December 12, 2011

  Actual Average Record
Temperature  
Mean Temperature 50 °F 48 °F  
Max Temperature 57 °F 58 °F 80 °F (1948)
Min Temperature 43 °F 39 °F 16 °F (1962)
Degree Days  
Heating Degree Days 15 17  
Month to date heating degree days 220 191  
Since 1 July heating degree days 528 565  
Cooling Degree Days 0 0  
Month to date cooling degree days 0 0  
Year to date cooling degree days 3676 2411  
Moisture  
Dew Point 30 °F    
Average Humidity 46    
Maximum Humidity 57    
Minimum Humidity 35    
Precipitation  
Precipitation 0.00 in 0.14 in 2.32 in (2015)
Month to date precipitation 2.39 1.57  
Year to date precipitation 21.63 43.12  
Snow  
Snow 0.00 in - - ()
Month to date snowfall 0.0  
Since 1 July snowfall 0.0  
Snow Depth 0.00 in    
Sea Level Pressure  
Sea Level Pressure 30.30 in    
Wind  
Wind Speed 7 mph (ESE)    
Max Wind Speed 14 mph    
Max Gust Speed 16 mph    
Visibility 10 miles    
Events      
T = Trace of Precipitation, MM = Missing Value Source: NWS Daily Summary

Daily Weather History Graph

Daily Weather History Graph

Search for Another Location

Airport or City:

Trip Planner

Search our weather history database for the weather conditions in past years. The results will help you decide how hot, cold, wet, or windy it might be!

Date:

Astronomy

Dec. 12, 2011 Rise Set
Actual Time 7:13 AM CST 5:17 PM CST
Civil Twilight 6:46 AM CST 5:44 PM CST
Nautical Twilight 6:15 AM CST 6:14 PM CST
Astronomical Twilight 5:45 AM CST 6:44 PM CST
Moon 7:26 PM CST (12/12) 8:47 AM CST (12/12)
Length of Visible Light 10h 57m
Length of Day
10h 03m
Waning Gibbous, 95% of the Moon is Illuminated
Dec 12
Waning Gibbous
Dec 17
Last Quarter
Dec 24
New
Jan 1
First Quarter
Jan 9
Full

Hourly Weather History & Observations

Time (CST) Temp. Windchill Dew Point Humidity Pressure Visibility Wind Dir Wind Speed Gust Speed Precip Events Conditions
12:53 AM 44.6 °F 39.2 °F 24.8 °F 46% 30.30 in 10.0 mi ESE 10.4 mph - N/A   Overcast
1:53 AM 44.1 °F 40.1 °F 24.1 °F 45% 30.31 in 10.0 mi ESE 6.9 mph - N/A   Overcast
2:53 AM 44.1 °F 40.8 °F 25.0 °F 47% 30.30 in 10.0 mi East 5.8 mph - N/A   Overcast
3:53 AM 44.1 °F 40.1 °F 25.0 °F 47% 30.29 in 10.0 mi ESE 6.9 mph - N/A   Overcast
4:53 AM 44.1 °F 40.1 °F 26.1 °F 49% 30.29 in 10.0 mi ESE 6.9 mph - N/A   Overcast
5:53 AM 44.1 °F 40.8 °F 26.1 °F 49% 30.30 in 10.0 mi ESE 5.8 mph - N/A   Overcast
6:53 AM 43.0 °F 39.5 °F 27.0 °F 53% 30.31 in 10.0 mi ESE 5.8 mph - N/A   Overcast
7:53 AM 43.0 °F 39.5 °F 28.0 °F 56% 30.32 in 10.0 mi ENE 5.8 mph - N/A   Overcast
8:53 AM 45.0 °F 41.8 °F 28.9 °F 53% 30.33 in 10.0 mi ESE 5.8 mph - N/A   Overcast
9:53 AM 46.0 °F 42.5 °F 30.0 °F 54% 30.36 in 10.0 mi SSE 6.9 mph - N/A   Overcast
10:53 AM 50.0 °F - 32.0 °F 50% 30.34 in 10.0 mi ESE 10.4 mph - N/A   Overcast
11:53 AM 52.0 °F - 30.0 °F 43% 30.31 in 10.0 mi ESE 9.2 mph - N/A   Mostly Cloudy
12:53 PM 53.1 °F - 28.9 °F 40% 30.29 in 10.0 mi SE 8.1 mph - N/A   Overcast
1:53 PM 55.0 °F - 28.9 °F 37% 30.25 in 10.0 mi East 11.5 mph - N/A   Overcast
2:53 PM 55.9 °F - 28.9 °F 36% 30.26 in 10.0 mi ESE 8.1 mph - N/A   Scattered Clouds
3:53 PM 57.0 °F - 30.0 °F 36% 30.24 in 10.0 mi ESE 8.1 mph - N/A   Overcast
4:53 PM 55.4 °F - 32.0 °F 41% 30.25 in 10.0 mi East 8.1 mph - N/A   Mostly Cloudy
5:53 PM 54.0 °F - 34.0 °F 47% 30.26 in 10.0 mi East 6.9 mph - N/A   Overcast
6:53 PM 53.1 °F - 35.1 °F 50% 30.28 in 10.0 mi East 6.9 mph - N/A   Mostly Cloudy
7:53 PM 52.0 °F - 36.0 °F 54% 30.29 in 10.0 mi East 5.8 mph - N/A   Scattered Clouds
8:53 PM 52.0 °F - 36.0 °F 54% 30.30 in 10.0 mi East 5.8 mph - N/A   Overcast
9:53 PM 52.0 °F - 36.0 °F 54% 30.30 in 10.0 mi ESE 4.6 mph - N/A   Overcast
10:53 PM 53.1 °F - 37.0 °F 55% 30.31 in 10.0 mi SE 6.9 mph - N/A   Overcast
11:53 PM 53.1 °F - 37.0 °F 55% 30.31 in 10.0 mi SE 9.2 mph - N/A   Overcast